Location: Csohesd
(46.2500°N, 22.6167°E)
Time: 05:27:00
(UTC+00:00)

NOSS 2-3 (C) - Pass Details

Date: 21 October 2021
Orbit: 536 x 1675 km, 63.3° (Epoch: 25 November)

Event Time Altitude Azimuth Distance (km) Brightness Sun altitude
Rises 16:57:29 0° 200° (SSW) 2,671 7.1 -15.4°
Reaches altitude 10° 16:59:37 10° 194° (SSW) 1,802 6.1 -15.7°
Maximum altitude 17:03:22 45° 121° (ESE) 794 3.7 -16.4°
Enters shadow 17:05:05 29° 68° (ENE) 1,114 4.3 -16.7°
